Location: Marse
(42.1502°N, 110.9866°W)
Time: 02:17:47
(UTC+00:00)

SPROUT - Visible Passes

Search period start: 26 June 2022 00:00
Search period end: 06 July 2022 00:00
Orbit: 588 x 602 km, 97.9° (Epoch: 25 June)

Date Brightness Start Highest point End Pass type
(mag) Time Alt. Az. Time Alt. Az. Time Alt. Az.
26 Jun ? 07:35:04 31° E 07:35:36 32° ENE 07:39:20 10° N visible
26 Jun ? 09:11:42 20° W 09:11:42 20° W 09:14:25 10° NW visible
27 Jun ? 07:44:39 40° E 07:45:01 41° ENE 07:48:57 10° N visible
27 Jun ? 09:21:17 16° W 09:21:17 16° W 09:23:29 10° NW visible
28 Jun ? 07:54:14 52° E 07:54:26 52° ENE 07:58:30 10° N visible
28 Jun ? 09:30:52 13° W 09:30:52 13° W 09:32:19 10° WNW visible
29 Jun ? 08:03:48 67° E 08:03:52 68° ENE 08:08:01 10° N visible
30 Jun ? 08:13:22 85° NE 08:13:22 85° NE 08:17:28 10° NNW visible
01 Jul ? 06:46:49 10° ENE 06:47:45 11° ENE 06:48:40 10° NE visible
01 Jul ? 08:22:55 72° WNW 08:22:55 72° WNW 08:26:54 10° NNW visible
02 Jul ? 06:55:49 12° E 06:57:03 13° ENE 06:59:03 10° NE visible
02 Jul ? 08:32:27 55° W 08:32:27 55° W 08:36:16 10° NNW visible
03 Jul ? 07:05:21 15° E 07:06:21 16° ENE 07:08:58 10° NNE visible
03 Jul ? 08:41:59 43° W 08:41:59 43° W 08:45:34 10° NNW visible
04 Jul ? 07:14:52 19° E 07:15:38 20° ENE 07:18:43 10° NNE visible
04 Jul ? 08:51:30 33° W 08:51:30 33° W 08:54:50 10° NNW visible
05 Jul ? 07:24:23 24° E 07:24:57 25° ENE 07:28:22 10° NNE visible
05 Jul ? 09:01:01 26° W 09:01:01 26° W 09:04:01 10° NW visible
